CZ-3B R/B (43921 NORAD) Tracking and Keplerian Element Data

This shows tracking and keplerian element data for the satellite.

Feedback or suggestion? Click here.




ElementValue
Catalog43921
NameCZ-3B R/B
Epoch Orbit27
Epoch Day21.36573302
Epoch Year2019
RAAN0.8248
Inclination27.0738
Eccentricity0.7236097
Argument of Perigee185.5491
Mean Anonmoly156.5917
Mean Motion2.39592125
Decay Rate0.00028891
L11 43921U 19001B 19021.36573302 .00028891 15554-6 16073-3 0 9996
L22 43921 27.0738 0.8248 7236097 185.5491 156.5917 2.39592125 278

Live tracking and technical data element details for CZ-3B R/B (NORAD 43921). CZ-3B R/B can be tracked NOW for your location showing map with azimuth and elevation plus other details from your city location.

Track the satellite on the map from your city or location and see movement details for azimuth, elevation, latitude, longitude, range, height, and movement on the map or in text.







IsCatalogInMostPopularTable: catalog: 43921, numindb: 2
Update: records affected: 1



GetName: 43921 CZ-3B R/B

Hit Count: updated at: Wed, 23 Jan 2019 03:11:22 GMT